Wind_Speed
18 19 19 20 21 21 22 22 22 21 20 19 19 18 18 18 18 17 17 17 17 17 17 16 16 15 15 15 15 15 15 15 15 15 15 15 15 15 14 14 14 14 14 14
21 21 21 21 22 22 22 22 21 21 20 19 19 19 18 18 18 18 17 16 16 16 16 16 15 14 15 15 15 15 15 15 15 15 15 15 15 15 14 14 14 14 15 15
23 23 23 22 22 22 22 22 22 22 20 19 20 19 19 19 18 18 18 17 17 17 17 16 16 16 16 17 15 15 16 16 16 15 15 15 15 15 15 15 15 15 16 16
25 25 26 23 23 23 24 23 22 22 21 21 20 20 19 19 18 18 17 17 17 18 17 16 16 17 17 17 17 16 16 16 16 16 15 15 15 15 15 15 15 16 17 17
26 26 27 25 24 24 24 23 22 22 21 21 20 20 18 18 17 17 16 17 17 17 17 17 17 17 18 18 17 17 16 17 17 17 16 16 15 15 16 16 16 17 17 17
26 26 26 24 23 23 23 23 21 21 21 20 20 19 18 18 17 16 17 17 18 18 18 18 19 19 19 18 17 17 17 17 17 17 17 16 16 16 17 17 17 17 17 18
26 25 24 23 22 22 23 22 22 22 22 21 21 20 19 18 18 17 17 18 18 19 19 19 19 19 18 18 18 18 18 18 17 17 17 17 17 17 17 17 17 17 17 18
26 26 25 24 24 24 23 23 22 22 22 22 21 21 19 18 18 18 18 18 19 19 20 20 20 20 19 19 19 19 18 18 18 18 18 17 17 18 18 18 18 18 19 19
27 27 26 26 26 25 25 24 23 23 23 23 22 22 21 20 20 20 20 20 20 20 21 21 21 21 20 20 20 20 19 19 18 18 18 18 18 18 19 19 19 19 20 20
29 28 27 27 27 26 26 26 25 24 24 24 24 23 22 21 21 21 21 22 21 22 22 22 22 21 21 21 21 21 20 20 19 19 19 19 19 19 19 20 20 20 20 20
29 29 28 28 28 28 27 26 26 25 25 26 25 24 23 22 23 23 23 23 22 22 22 22 22 22 22 22 21 21 20 20 20 20 20 20 20 19 20 20 21 22 21 21
28 28 28 28 28 28 28 28 27 27 27 26 25 25 25 25 24 24 24 23 23 23 23 23 23 24 24 24 23 22 21 22 21 21 21 20 20 20 21 21 21 22 21 21
28 28 28 28 27 27 28 28 28 27 27 26 26 25 25 25 24 23 23 23 23 24 24 25 25 26 25 25 24 23 23 23 23 23 23 22 21 22 22 22 22 21 21 21
28 28 27 27 27 27 27 28 28 28 27 26 26 25 25 24 23 23 23 23 24 24 24 25 25 26 26 25 24 24 24 24 24 24 24 23 23 23 23 23 22 22 21 21
28 28 27 26 27 26 26 27 27 26 26 25 24 24 24 23 23 22 23 23 24 25 25 24 24 25 24 24 24 24 24 24 25 24 24 23 23 23 23 23 23 22 21 21
26 26 26 25 25 25 25 25 25 25 25 24 24 24 23 23 23 23 24 24 25 24 24 24 23 23 23 24 24 24 25 25 25 25 24 24 23 23 23 23 23 22 22 21
23 23 23 24 24 24 24 24 24 24 25 25 25 24 24 24 24 24 25 25 24 24 24 24 24 24 24 24 24 24 25 25 25 24 24 24 23 23 23 23 22 22 22 21
23 23 22 23 24 23 23 23 23 22 22 23 23 24 25 25 25 25 25 25 24 24 24 24 24 24 24 24 24 25 25 25 24 24 24 24 23 23 22 21 21 21 21 19
22 23 23 24 24 24 24 23 23 22 22 22 23 23 23 24 25 25 25 24 23 23 22 22 23 23 23 23 24 24 24 23 23 23 22 22 22 21 21 21 20 20 19 19
21 22 22 23 24 24 24 23 23 23 22 22 23 23 23 23 23 24 24 24 24 23 22 22 23 23 23 23 23 23 23 23 22 22 22 22 21 21 20 20 20 20 19 19
21 21 22 23 23 24 24 24 24 23 22 23 23 24 23 23 23 24 24 24 24 24 23 23 23 23 24 24 23 23 23 23 22 22 22 22 21 20 19 19 19 19 18 18
22 22 23 24 24 24 24 24 24 23 23 23 23 24 24 24 24 24 24 24 24 24 24 24 25 25 25 24 23 23 23 23 23 23 22 21 21 21 20 19 19 19 18 18
22 22 22 23 23 23 23 23 23 23 23 23 24 24 24 24 24 24 24 24 25 25 25 25 25 25 24 23 23 23 23 23 23 22 21 21 20 20 20 20 20 19 18 18
21 22 22 22 22 22 22 23 23 24 24 23 24 24 23 22 23 23 23 23 24 24 24 24 24 24 23 23 23 23 23 22 22 22 22 21 20 20 20 20 20 20 19 19
20 21 21 21 22 22 23 23 22 22 23 23 23 23 22 22 22 23 23 23 22 22 22 23 23 24 24 23 23 22 22 22 22 22 22 21 20 20 20 21 20 20 20 20
19 19 19 20 20 21 22 22 22 22 23 24 24 24 23 23 23 23 23 23 23 23 23 23 23 24 24 23 23 22 22 21 22 22 21 20 20 21 21 21 21 21 21 21
19 19 18 19 19 20 21 21 21 21 22 22 23 23 23 24 24 24 24 23 24 24 23 23 23 23 23 23 22 22 22 22 21 21 21 20 20 21 20 20 21 21 21 21
Wind_Direction
254 256 260 263 264 266 271 275 279 285 286 287 289 290 288 289 287 288 290 293 298 303 303 302 301 301 303 303 304 304 305 303 300 301 299 300 300 300 300 299 296 291 290 291
259 260 261 262 264 268 272 275 278 283 284 286 286 286 288 290 289 287 290 292 295 301 301 300 299 298 298 300 301 302 302 301 301 302 300 299 301 301 299 298 296 293 292 294
261 261 261 263 266 269 272 274 278 280 282 283 283 283 286 287 287 287 286 288 292 296 296 296 297 297 297 299 298 299 301 301 301 302 301 299 298 298 298 297 296 295 293 294
263 262 262 265 267 269 271 273 274 276 277 279 282 283 285 285 283 283 281 282 289 291 292 292 295 296 297 297 298 298 300 301 300 299 300 299 300 297 297 296 295 296 295 294
263 264 266 265 266 269 271 270 271 274 277 279 281 281 282 284 283 281 281 284 288 290 291 291 293 294 295 295 295 296 298 300 299 297 298 298 298 296 295 295 294 295 296 295
264 266 266 266 266 268 270 270 271 274 276 278 280 278 280 280 282 281 282 284 287 290 291 291 293 294 294 292 292 294 296 298 298 295 296 297 297 297 295 293 293 294 295 294
262 263 264 266 268 269 271 272 272 273 274 276 277 278 279 279 280 279 281 284 286 287 289 290 293 294 291 290 291 293 294 296 296 294 294 294 295 295 294 293 293 294 294 294
259 260 263 266 269 270 270 270 272 274 274 277 278 277 278 279 280 280 279 281 284 284 286 289 291 292 290 287 287 290 293 293 293 294 294 293 293 293 294 293 293 295 294 294
259 261 264 265 267 267 268 269 271 273 275 277 278 277 278 279 280 280 280 281 284 285 284 286 289 290 289 287 287 289 292 291 292 292 291 292 292 294 294 294 292 293 294 294
259 261 263 264 264 265 267 268 269 272 273 275 276 276 275 275 278 279 279 279 282 282 282 282 284 285 286 286 287 288 289 290 290 291 290 290 291 293 295 296 294 293 293 293
261 262 263 263 263 264 265 266 267 269 272 274 275 276 275 275 276 276 277 279 281 281 281 280 281 283 283 284 286 286 286 287 287 287 287 289 290 291 293 295 296 294 292 292
261 262 261 261 261 261 264 265 266 268 270 271 272 274 273 274 275 276 277 278 280 282 282 281 281 284 284 286 285 283 283 283 284 286 287 289 291 290 292 294 295 294 293 292
260 259 259 260 260 261 262 264 265 267 269 268 272 274 275 275 276 276 277 279 280 282 283 281 280 282 282 283 282 281 281 282 283 285 286 287 288 291 293 294 294 293 293 292
260 259 259 260 260 259 260 260 261 264 267 267 271 274 275 276 276 277 279 280 281 283 284 283 281 281 281 280 279 280 282 282 284 286 286 285 286 289 291 293 293 291 290 288
260 258 258 259 259 257 257 255 258 261 264 267 269 271 272 274 276 278 280 281 282 283 284 284 283 282 280 279 279 281 282 282 283 285 286 284 285 288 291 291 290 289 288 287
260 258 255 253 253 254 255 256 260 262 262 264 268 270 272 273 276 278 279 281 283 284 285 283 282 280 279 279 280 281 281 280 282 283 284 285 285 287 289 289 287 286 286 286
255 252 253 252 251 252 254 256 259 261 261 264 267 270 273 275 277 280 282 285 285 284 284 282 281 279 279 280 281 282 282 281 280 280 282 282 284 285 286 286 285 284 285 285
255 252 252 253 253 255 256 258 259 257 259 264 269 271 275 277 277 279 282 285 285 284 284 283 282 281 283 284 283 283 283 282 279 279 281 280 281 283 285 285 285 283 282 283
255 252 252 253 255 256 257 259 258 259 262 267 272 275 276 278 279 280 281 283 284 286 286 286 286 285 285 286 287 285 283 283 282 280 280 279 279 280 282 283 283 283 281 282
254 252 253 254 253 254 256 258 260 262 266 270 274 276 278 279 280 281 283 284 283 285 287 288 287 286 285 284 285 284 282 283 283 281 281 281 280 280 283 284 283 281 281 281
253 253 255 256 257 257 258 259 260 261 265 269 274 277 278 279 280 281 282 283 283 284 286 288 287 286 285 284 284 283 281 281 281 282 282 279 278 279 281 283 281 279 280 281
256 257 258 258 259 258 258 259 261 264 266 269 272 275 276 278 280 281 282 283 283 284 286 287 287 287 286 285 282 281 280 280 281 281 279 277 277 277 277 278 277 277 277 278
259 259 259 260 261 258 256 258 262 266 268 271 274 275 275 277 278 281 282 283 283 284 286 286 285 284 285 285 283 281 280 280 280 278 278 276 274 274 274 274 274 274 274 276
261 261 262 263 263 261 260 261 265 267 268 270 273 275 276 277 279 281 283 285 285 285 286 285 282 282 283 284 283 280 279 279 278 275 276 276 272 271 272 272 272 271 273 275
264 265 265 264 263 264 265 266 265 264 266 268 271 274 276 278 281 284 286 287 287 287 286 284 281 281 282 282 282 280 278 277 275 273 273 272 271 270 269 270 271 271 271 273
271 270 268 267 266 266 266 265 264 264 265 267 269 272 275 278 280 283 286 287 286 287 286 283 282 281 281 281 280 279 276 275 274 272 271 271 272 271 271 271 272 272 271 272
272 273 270 267 268 267 267 267 267 268 267 266 267 270 274 278 279 281 284 286 287 286 285 283 283 282 281 279 278 276 274 273 272 270 270 270 272 271 271 271 271 271 271 272
Height
5788 5789 5790 5790 5791 5791 5791 5791 5791 5792 5791 5792 5791 5790 5789 5788 5786 5786 5784 5783 5782 5781 5779 5777 5775 5774 5772 5771 5769 5768 5766 5765 5764 5762 5761 5759 5758 5756 5755 5753 5752 5751 5750 5749
5783 5784 5785 5785 5786 5787 5787 5787 5787 5786 5787 5787 5785 5785 5784 5783 5782 5781 5780 5779 5778 5776 5775 5773 5771 5770 5768 5767 5765 5764 5763 5761 5760 5758 5757 5755 5754 5752 5751 5749 5748 5747 5746 5745
5778 5778 5779 5780 5781 5781 5781 5782 5782 5781 5782 5781 5781 5780 5779 5778 5777 5776 5775 5774 5773 5772 5770 5769 5768 5766 5764 5762 5761 5760 5759 5757 5756 5754 5752 5751 5749 5748 5747 5746 5744 5743 5742 5741
5771 5773 5773 5777 5775 5775 5775 5776 5776 5776 5776 5776 5775 5774 5773 5773 5772 5771 5770 5770 5769 5767 5766 5765 5763 5762 5760 5758 5757 5756 5754 5753 5752 5750 5748 5747 5745 5744 5743 5741 5740 5739 5738 5737
5765 5765 5767 5769 5769 5769 5769 5770 5770 5770 5770 5770 5769 5769 5768 5767 5766 5766 5765 5764 5764 5763 5761 5760 5759 5757 5755 5754 5753 5751 5750 5748 5747 5745 5744 5742 5741 5740 5738 5737 5736 5735 5734 5732
5758 5759 5760 5763 5763 5762 5763 5763 5764 5764 5764 5764 5764 5764 5764 5762 5761 5760 5760 5759 5758 5757 5756 5755 5754 5752 5751 5749 5748 5747 5745 5744 5742 5741 5739 5738 5737 5735 5734 5733 5731 5730 5729 5727
5751 5752 5753 5755 5756 5756 5758 5759 5758 5758 5758 5758 5758 5759 5758 5757 5756 5755 5755 5754 5753 5752 5751 5750 5748 5747 5746 5744 5743 5742 5740 5738 5737 5736 5734 5733 5732 5731 5729 5728 5726 5725 5724 5722
5744 5745 5749 5748 5749 5750 5751 5751 5751 5752 5752 5752 5752 5752 5751 5751 5751 5750 5749 5749 5748 5747 5745 5744 5743 5742 5740 5739 5737 5735 5734 5733 5732 5731 5729 5728 5727 5725 5724 5722 5721 5720 5718 5717
5738 5740 5740 5741 5742 5742 5743 5744 5745 5746 5746 5746 5745 5745 5745 5745 5744 5744 5743 5743 5742 5741 5739 5738 5737 5736 5735 5733 5731 5730 5729 5727 5726 5725 5724 5723 5721 5720 5719 5717 5715 5714 5712 5711
5729 5731 5732 5733 5734 5735 5736 5737 5738 5739 5739 5739 5739 5739 5738 5738 5738 5737 5737 5736 5735 5734 5733 5732 5731 5730 5729 5727 5725 5724 5723 5722 5720 5719 5718 5717 5716 5714 5713 5711 5710 5708 5706 5705
5721 5722 5724 5725 5726 5727 5728 5729 5730 5731 5731 5731 5731 5731 5731 5731 5731 5730 5730 5729 5728 5727 5726 5725 5724 5723 5722 5721 5719 5718 5717 5716 5714 5713 5712 5711 5710 5708 5707 5705 5703 5702 5700 5698
5713 5714 5716 5717 5718 5719 5720 5721 5722 5723 5723 5723 5724 5724 5724 5724 5723 5723 5722 5722 5721 5720 5719 5718 5717 5716 5715 5714 5713 5712 5711 5710 5709 5707 5706 5705 5704 5702 5700 5699 5697 5696 5694 5692
5704 5706 5707 5708 5709 5710 5711 5713 5714 5715 5715 5716 5716 5716 5716 5716 5715 5715 5714 5714 5713 5713 5712 5711 5710 5709 5708 5707 5706 5705 5704 5703 5702 5701 5700 5699 5697 5696 5694 5693 5691 5689 5688 5686
5695 5697 5698 5700 5701 5702 5703 5704 5705 5706 5707 5708 5708 5708 5708 5708 5708 5707 5707 5706 5706 5705 5704 5703 5702 5701 5700 5699 5698 5697 5696 5695 5694 5693 5692 5691 5690 5689 5688 5686 5685 5683 5682 5680
5687 5688 5690 5691 5692 5693 5695 5696 5697 5698 5699 5700 5700 5700 5700 5700 5700 5700 5699 5699 5698 5697 5696 5695 5694 5693 5692 5691 5690 5689 5689 5688 5687 5685 5684 5683 5683 5682 5681 5679 5678 5677 5675 5674
5679 5680 5682 5684 5685 5686 5687 5688 5689 5690 5691 5692 5693 5693 5693 5693 5693 5692 5692 5691 5690 5690 5688 5687 5686 5685 5684 5683 5682 5681 5680 5679 5678 5678 5677 5676 5675 5675 5674 5672 5671 5670 5669 5668
5672 5673 5675 5676 5678 5679 5680 5680 5681 5682 5684 5684 5685 5685 5685 5686 5685 5685 5684 5683 5683 5682 5681 5679 5678 5677 5676 5675 5674 5673 5672 5670 5670 5669 5669 5669 5668 5667 5666 5665 5664 5663 5662 5661
5665 5666 5668 5669 5670 5672 5673 5674 5675 5675 5676 5677 5677 5677 5678 5678 5677 5677 5676 5676 5675 5674 5673 5672 5671 5670 5668 5667 5666 5665 5664 5662 5662 5662 5661 5661 5660 5660 5659 5658 5657 5656 5655 5654
5658 5659 5660 5662 5663 5665 5666 5667 5668 5669 5669 5670 5670 5670 5670 5670 5669 5669 5669 5668 5667 5666 5665 5664 5663 5662 5661 5660 5658 5657 5656 5655 5654 5654 5653 5653 5653 5652 5652 5651 5650 5649 5649 5648
5651 5652 5653 5654 5656 5657 5659 5660 5661 5662 5662 5662 5663 5663 5662 5662 5662 5662 5661 5661 5660 5659 5658 5656 5655 5654 5653 5652 5651 5650 5649 5648 5647 5646 5646 5646 5645 5645 5645 5644 5644 5643 5642 5642
5645 5646 5647 5648 5649 5650 5651 5653 5654 5654 5654 5655 5655 5655 5655 5654 5654 5654 5653 5653 5652 5651 5650 5648 5647 5646 5645 5644 5643 5642 5642 5641 5640 5639 5639 5639 5639 5638 5638 5638 5637 5637 5636 5636
5639 5640 5640 5641 5642 5643 5644 5645 5646 5647 5647 5647 5648 5647 5647 5647 5646 5646 5645 5644 5644 5643 5641 5640 5639 5638 5638 5637 5636 5635 5634 5633 5633 5632 5632 5632 5632 5632 5631 5631 5631 5630 5630 5630
5632 5633 5633 5634 5635 5636 5637 5638 5639 5640 5640 5640 5640 5640 5639 5639 5639 5638 5638 5637 5635 5634 5633 5632 5631 5630 5630 5629 5628 5627 5627 5626 5625 5625 5624 5624 5624 5624 5624 5624 5624 5624 5624 5624
5626 5626 5627 5627 5628 5629 5630 5631 5631 5632 5632 5633 5633 5632 5632 5632 5631 5630 5629 5628 5627 5626 5625 5624 5623 5622 5622 5621 5621 5620 5619 5619 5618 5618 5618 5617 5617 5617 5618 5618 5618 5618 5618 5617
5619 5620 5620 5621 5621 5622 5623 5623 5624 5625 5625 5625 5625 5625 5625 5624 5624 5623 5622 5621 5620 5618 5617 5616 5615 5615 5614 5613 5613 5612 5612 5611 5611 5611 5611 5610 5611 5611 5611 5611 5611 5611 5611 5611
5613 5613 5614 5614 5615 5615 5616 5616 5617 5617 5617 5618 5618 5617 5617 5617 5616 5616 5615 5614 5612 5611 5610 5609 5608 5607 5606 5606 5605 5605 5604 5604 5604 5603 5603 5604 5604 5604 5604 5604 5604 5604 5604 5604
5607 5607 5608 5608 5608 5608 5609 5609 5609 5609 5609 5610 5610 5610 5609 5609 5609 5608 5607 5606 5605 5604 5603 5602 5601 5600 5599 5598 5597 5597 5597 5597 5596 5596 5596 5596 5596 5596 5597 5597 5597 5597 5597 5597